| time (UTC) | temp C | wind direction | speed KPH | gust KPH | rain 1hr cm | rain 24hr cm | rain mn cm | humidity % | barometer mb |
| 20260506215525 | 13 | 270 | 0.0 | 3.2 | 0.00 | 0.00 | 0.00 | 68 | 1014.0 |
| 20260506214543 | 13 | 0.0 | 1.6 | 0.00 | 0.00 | 0.00 | 68 | 1014.1 | |
| 20260506213523 | 12 | 0.0 | 0.0 | 0.00 | 0.00 | 0.00 | 68 | 1014.1 | |
| 20260506212519 | 12 | 0.0 | 1.6 | 0.00 | 0.00 | 0.00 | 68 | 1014.1 | |
| 20260506211537 | 13 | 0.0 | 3.2 | 0.00 | 0.00 | 0.00 | 68 | 1014.1 | |
| 20260506210535 | 13 | 90 | 0.0 | 3.2 | 0.00 | 0.00 | 0.00 | 68 | 1014.1 |
| 20260506205613 | 13 | 45 | 0.0 | 3.2 | 0.00 | 0.00 | 0.00 | 68 | 1014.0 |
| 20260506204611 | 13 | 56 | 0.0 | 3.2 | 0.00 | 0.00 | 0.00 | 68 | 1014.1 |
| 20260506203609 | 13 | 48 | 1.6 | 4.8 | 0.00 | 0.00 | 0.00 | 69 | 1014.1 |
| 20260506202608 | 13 | 65 | 1.6 | 3.2 | 0.00 | 0.00 | 0.00 | 69 | 1014.0 |
| 20260506201605 | 13 | 90 | 0.0 | 3.2 | 0.00 | 0.00 | 0.00 | 70 | 1014.0 |
| 20260506200603 | 13 | 90 | 1.6 | 3.2 | 0.00 | 0.00 | 0.00 | 69 | 1013.9 |
| 20260506195602 | 13 | 37 | 3.2 | 8.0 | 0.00 | 0.00 | 0.00 | 69 | 1013.9 |
| 20260506194620 | 13 | 77 | 1.6 | 3.2 | 0.00 | 0.00 | 0.00 | 69 | 1013.9 |
| 20260506193559 | 13 | 54 | 1.6 | 3.2 | 0.00 | 0.00 | 0.00 | 69 | 1013.9 |
| 20260506192556 | 13 | 31 | 3.2 | 6.4 | 0.00 | 0.00 | 0.00 | 68 | 1013.7 |
| 20260506191636 | 13 | 40 | 9.7 | 12.9 | 0.00 | 0.00 | 0.00 | 68 | 1013.7 |
| 20260506190552 | 13 | 15 | 4.8 | 9.7 | 0.00 | 0.00 | 0.00 | 67 | 1013.7 |
| 20260506185550 | 13 | 14 | 4.8 | 6.4 | 0.00 | 0.00 | 0.00 | 66 | 1013.6 |
| 20260506184548 | 13 | 56 | 6.4 | 9.7 | 0.00 | 0.00 | 0.00 | 64 | 1013.6 |
| 20260506183546 | 13 | 45 | 9.7 | 14.5 | 0.00 | 0.00 | 0.00 | 63 | 1013.5 |
| 20260506182544 | 13 | 32 | 9.7 | 16.1 | 0.00 | 0.00 | 0.00 | 61 | 1013.5 |
| 20260506181542 | 14 | 28 | 4.8 | 9.7 | 0.00 | 0.00 | 0.00 | 59 | 1013.6 |
| 20260506180540 | 14 | 45 | 6.4 | 12.9 | 0.00 | 0.00 | 0.00 | 58 | 1013.6 |
| 20260506175538 | 15 | 2 | 6.4 | 11.3 | 0.00 | 0.00 | 0.00 | 57 | 1013.6 |
| 20260506174536 | 15 | 42 | 6.4 | 9.7 | 0.00 | 0.00 | 0.00 | 54 | 1013.6 |
| 20260506173534 | 15 | 19 | 11.3 | 19.3 | 0.00 | 0.00 | 0.00 | 52 | 1013.5 |
| 20260506172533 | 15 | 326 | 6.4 | 12.9 | 0.00 | 0.00 | 0.00 | 51 | 1013.5 |
| 20260506171530 | 16 | 30 | 4.8 | 12.9 | 0.00 | 0.00 | 0.00 | 52 | 1013.4 |
| 20260506170548 | 16 | 350 | 6.4 | 12.9 | 0.00 | 0.00 | 0.00 | 51 | 1013.3 |
| 20260506165526 | 16 | 309 | 6.4 | 12.9 | 0.00 | 0.00 | 0.00 | 49 | 1013.3 |
| 20260506164524 | 16 | 309 | 6.4 | 12.9 | 0.00 | 0.00 | 0.00 | 48 | 1013.3 |
| 20260506163522 | 17 | 293 | 4.8 | 11.3 | 0.00 | 0.00 | 0.00 | 44 | 1013.4 |
| 20260506162520 | 18 | 38 | 8.0 | 14.5 | 0.00 | 0.00 | 0.00 | 43 | 1013.4 |
| 20260506161518 | 18 | 13 | 4.8 | 12.9 | 0.00 | 0.00 | 0.00 | 44 | 1013.2 |
| 20260506160516 | 17 | 139 | 8.0 | 12.9 | 0.00 | 0.00 | 0.00 | 42 | 1013.4 |
| 20260506155614 | 17 | 27 | 9.7 | 16.1 | 0.00 | 0.00 | 0.00 | 41 | 1013.4 |
| 20260506154612 | 17 | 318 | 6.4 | 12.9 | 0.00 | 0.00 | 0.00 | 42 | 1013.6 |
| 20260506153610 | 17 | 287 | 4.8 | 9.7 | 0.00 | 0.00 | 0.00 | 43 | 1013.5 |
| 20260506152628 | 17 | 295 | 8.0 | 16.1 | 0.00 | 0.00 | 0.00 | 45 | 1013.7 |
| 20260506151606 | 17 | 317 | 8.0 | 12.9 | 0.00 | 0.00 | 0.00 | 44 | 1013.7 |
| 20260506150604 | 17 | 348 | 8.0 | 14.5 | 0.00 | 0.00 | 0.00 | 45 | 1013.8 |
| 20260506145602 | 17 | 309 | 6.4 | 11.3 | 0.00 | 0.00 | 0.00 | 48 | 1013.9 |
| 20260506144600 | 17 | 135 | 8.0 | 16.1 | 0.00 | 0.00 | 0.00 | 49 | 1013.8 |
| 20260506143619 | 17 | 232 | 6.4 | 14.5 | 0.00 | 0.00 | 0.00 | 49 | 1013.9 |
| 20260506142557 | 17 | 303 | 4.8 | 12.9 | 0.00 | 0.00 | 0.00 | 44 | 1013.9 |
| 20260506141555 | 17 | 284 | 3.2 | 6.4 | 0.00 | 0.00 | 0.00 | 42 | 1013.9 |
| 20260506140552 | 18 | 0 | 3.2 | 4.8 | 0.00 | 0.00 | 0.00 | 42 | 1014.2 |
| 20260506135550 | 18 | 256 | 3.2 | 9.7 | 0.00 | 0.00 | 0.00 | 43 | 1014.3 |
| 20260506134549 | 18 | 225 | 4.8 | 11.3 | 0.00 | 0.00 | 0.00 | 42 | 1014.4 |
| 20260506133546 | 17 | 10 | 3.2 | 6.4 | 0.00 | 0.00 | 0.00 | 42 | 1014.6 |
| 20260506132544 | 17 | 315 | 3.2 | 6.4 | 0.00 | 0.00 | 0.00 | 44 | 1014.6 |
| 20260506131542 | 17 | 7 | 3.2 | 6.4 | 0.00 | 0.00 | 0.00 | 44 | 1014.6 |
| 20260506130541 | 17 | 270 | 3.2 | 4.8 | 0.00 | 0.00 | 0.00 | 46 | 1014.7 |
| 20260506125539 | 17 | 36 | 3.2 | 6.4 | 0.00 | 0.00 | 0.00 | 45 | 1014.8 |
| 20260506124537 | 17 | 16 | 3.2 | 8.0 | 0.00 | 0.00 | 0.00 | 48 | 1014.8 |
| 20260506123535 | 17 | 36 | 4.8 | 8.0 | 0.00 | 0.00 | 0.00 | 48 | 1014.9 |
| 20260506122533 | 17 | 316 | 4.8 | 11.3 | 0.00 | 0.00 | 0.00 | 46 | 1014.9 |
| 20260506121551 | 17 | 315 | 6.4 | 12.9 | 0.00 | 0.00 | 0.00 | 44 | 1015.0 |
| 20260506120529 | 18 | 90 | 9.7 | 14.5 | 0.00 | 0.00 | 0.00 | 43 | 1014.9 |
| 20260506115547 | 17 | 251 | 4.8 | 9.7 | 0.00 | 0.03 | 0.00 | 43 | 1015.0 |
| 20260506114546 | 17 | 14 | 6.4 | 12.9 | 0.00 | 0.05 | 0.00 | 42 | 1015.1 |
| 20260506113523 | 17 | 253 | 3.2 | 6.4 | 0.00 | 0.05 | 0.00 | 40 | 1015.1 |
| 20260506112521 | 17 | 45 | 4.8 | 6.4 | 0.00 | 0.05 | 0.00 | 40 | 1015.0 |
| 20260506111519 | 17 | 54 | 3.2 | 8.0 | 0.00 | 0.05 | 0.00 | 39 | 1015.1 |
| 20260506110517 | 18 | 352 | 3.2 | 6.4 | 0.00 | 0.05 | 0.00 | 42 | 1015.2 |
| 20260506105517 | 17 | 50 | 3.2 | 6.4 | 0.00 | 0.05 | 0.00 | 41 | 1015.2 |
| 20260506104613 | 17 | 60 | 3.2 | 6.4 | 0.00 | 0.05 | 0.00 | 42 | 1015.2 |
| 20260506103611 | 16 | 39 | 3.2 | 6.4 | 0.00 | 0.05 | 0.00 | 46 | 1015.3 |
| 20260506102609 | 16 | 28 | 3.2 | 9.7 | 0.00 | 0.05 | 0.00 | 44 | 1015.2 |
| 20260506101607 | 17 | 19 | 3.2 | 6.4 | 0.00 | 0.05 | 0.00 | 42 | 1015.2 |
| 20260506100605 | 16 | 0.0 | 1.6 | 0.00 | 0.05 | 0.00 | 48 | 1015.3 | |
| 20260506095623 | 15 | 250 | 4.8 | 11.3 | 0.00 | 0.05 | 0.00 | 46 | 1015.3 |
| 20260506094601 | 15 | 216 | 3.2 | 6.4 | 0.00 | 0.05 | 0.00 | 48 | 1015.3 |
| 20260506093559 | 15 | 227 | 6.4 | 14.5 | 0.00 | 0.05 | 0.00 | 48 | 1015.2 |
| 20260506092557 | 15 | 175 | 1.6 | 8.0 | 0.00 | 0.05 | 0.00 | 51 | 1015.3 |
| 20260506091555 | 15 | 212 | 3.2 | 6.4 | 0.00 | 0.05 | 0.00 | 51 | 1015.2 |
| 20260506090613 | 14 | 121 | 3.2 | 6.4 | 0.00 | 0.05 | 0.00 | 53 | 1015.2 |
| 20260506085551 | 14 | 189 | 3.2 | 6.4 | 0.00 | 0.05 | 0.00 | 54 | 1015.2 |
| 20260506084609 | 14 | 168 | 3.2 | 8.0 | 0.00 | 0.05 | 0.00 | 55 | 1015.3 |
| 20260506083547 | 14 | 213 | 1.6 | 4.8 | 0.00 | 0.05 | 0.00 | 62 | 1015.2 |
| 20260506082546 | 13 | 210 | 1.6 | 3.2 | 0.00 | 0.05 | 0.00 | 64 | 1015.3 |
| 20260506081543 | 13 | 78 | 3.2 | 6.4 | 0.00 | 0.05 | 0.00 | 66 | 1015.3 |
| 20260506080541 | 12 | 125 | 1.6 | 3.2 | 0.00 | 0.05 | 0.00 | 70 | 1015.3 |
| 20260506072533 | 11 | 129 | 0.0 | 3.2 | 0.00 | 0.05 | 0.00 | 75 | 1015.2 |
| 20260506071551 | 11 | 225 | 1.6 | 3.2 | 0.00 | 0.05 | 0.00 | 75 | 1015.2 |
| 20260506070529 | 11 | 229 | 1.6 | 4.8 | 0.00 | 0.05 | 0.00 | 76 | 1015.2 |
| 20260506061540 | 10 | 225 | 0.0 | 3.2 | 0.00 | 0.05 | 0.00 | 81 | 1014.8 |
| 20260506060518 | 10 | 0.0 | 1.6 | 0.00 | 0.05 | 0.00 | 81 | 1014.9 | |
| 20260506050606 | 10 | 247 | 3.2 | 6.4 | 0.00 | 0.05 | 0.00 | 80 | 1014.5 |
| 20260506044602 | 10 | 150 | 1.6 | 3.2 | 0.00 | 0.05 | 0.00 | 82 | 1014.4 |
| 20260506043620 | 9 | 0.0 | 3.2 | 0.00 | 0.05 | 0.00 | 81 | 1014.5 | |
| 20260506042558 | 9 | 0.0 | 0.0 | 0.00 | 0.05 | 0.00 | 81 | 1014.7 | |
| 20260506041556 | 9 | 90 | 0.0 | 3.2 | 0.00 | 0.05 | 0.00 | 80 | 1014.8 |
| 20260506040614 | 10 | 90 | 1.6 | 3.2 | 0.00 | 0.05 | 0.00 | 79 | 1014.7 |
| 20260506035552 | 10 | 180 | 0.0 | 3.2 | 0.00 | 0.05 | 0.00 | 80 | 1014.8 |
| 20260506034550 | 10 | 173 | 0.0 | 3.2 | 0.00 | 0.05 | 0.00 | 80 | 1014.6 |
| 20260506033548 | 10 | 225 | 0.0 | 3.2 | 0.00 | 0.05 | 0.00 | 81 | 1014.7 |
| 20260506032546 | 10 | 0.0 | 1.6 | 0.00 | 0.05 | 0.00 | 80 | 1014.8 | |
| 20260506031544 | 10 | 56 | 0.0 | 3.2 | 0.00 | 0.05 | 0.00 | 81 | 1014.8 |
| 20260506030542 | 10 | 60 | 0.0 | 3.2 | 0.00 | 0.05 | 0.00 | 80 | 1014.8 |
| 20260506025540 | 10 | 135 | 0.0 | 3.2 | 0.00 | 0.05 | 0.00 | 80 | 1014.9 |
| 20260506024618 | 10 | 146 | 1.6 | 4.8 | 0.00 | 0.05 | 0.00 | 81 | 1014.8 |
| 20260506023536 | 10 | 0.0 | 3.2 | 0.00 | 0.05 | 0.00 | 80 | 1014.8 | |
| 20260506022556 | 10 | 233 | 1.6 | 3.2 | 0.00 | 0.05 | 0.00 | 80 | 1014.8 |
| 20260506021532 | 10 | 242 | 0.0 | 3.2 | 0.00 | 0.05 | 0.00 | 80 | 1014.8 |
| 20260506020530 | 10 | 0.0 | 1.6 | 0.00 | 0.05 | 0.00 | 79 | 1014.8 | |
| 20260506015528 | 10 | 0 | 0.0 | 3.2 | 0.00 | 0.05 | 0.00 | 79 | 1014.9 |
| 20260506014546 | 10 | 276 | 0.0 | 6.4 | 0.00 | 0.05 | 0.00 | 80 | 1014.9 |
| 20260506013524 | 10 | 45 | 0.0 | 3.2 | 0.00 | 0.05 | 0.00 | 78 | 1015.0 |
| 20260506012522 | 10 | 0.0 | 1.6 | 0.00 | 0.05 | 0.00 | 78 | 1015.1 | |
| 20260506011520 | 10 | 0.0 | 0.0 | 0.00 | 0.05 | 0.00 | 78 | 1015.2 | |
| 20260506010518 | 10 | 0.0 | 1.6 | 0.00 | 0.05 | 0.00 | 78 | 1015.3 | |
| 20260506005516 | 10 | 0.0 | 3.2 | 0.00 | 0.05 | 0.00 | 79 | 1015.5 | |
| 20260506004614 | 10 | 0.0 | 1.6 | 0.00 | 0.05 | 0.00 | 79 | 1015.6 | |
| 20260506003612 | 10 | 0.0 | 3.2 | 0.00 | 0.05 | 0.00 | 78 | 1015.8 | |
| 20260506002610 | 10 | 180 | 0.0 | 3.2 | 0.00 | 0.05 | 0.00 | 78 | 1015.6 |
| 20260506001609 | 11 | 270 | 0.0 | 4.8 | 0.00 | 0.05 | 0.00 | 78 | 1015.7 |
| 20260506000628 | 11 | 0.0 | 1.6 | 0.00 | 0.05 | 0.00 | 77 | 1015.7 | |
| 20260505235605 | 11 | 158 | 0.0 | 3.2 | 0.00 | 0.05 | 0.00 | 77 | 1015.7 |
| 20260505234603 | 11 | 0.0 | 3.2 | 0.00 | 0.05 | 0.00 | 76 | 1015.7 | |
| 20260505233601 | 11 | 0.0 | 1.6 | 0.00 | 0.05 | 0.00 | 76 | 1015.8 | |
| 20260505232600 | 11 | 180 | 0.0 | 3.2 | 0.00 | 0.05 | 0.00 | 75 | 1015.9 |
| 20260505231557 | 11 | 90 | 0.0 | 3.2 | 0.00 | 0.05 | 0.00 | 75 | 1015.7 |
| 20260505230555 | 11 | 23 | 1.6 | 3.2 | 0.00 | 0.05 | 0.00 | 74 | 1015.8 |
| 20260505225553 | 11 | 80 | 0.0 | 3.2 | 0.00 | 0.05 | 0.00 | 74 | 1015.8 |
| 20260505224551 | 11 | 106 | 1.6 | 6.4 | 0.00 | 0.05 | 0.00 | 74 | 1016.0 |
| 20260505223549 | 11 | 192 | 6.4 | 11.3 | 0.00 | 0.05 | 0.00 | 73 | 1015.9 |
| 20260505222547 | 11 | 246 | 1.6 | 6.4 | 0.00 | 0.05 | 0.00 | 73 | 1015.8 |
| 20260505221605 | 11 | 239 | 3.2 | 6.4 | 0.00 | 0.05 | 0.00 | 73 | 1015.8 |
| 20260505220543 | 11 | 180 | 3.2 | 6.4 | 0.00 | 0.05 | 0.00 | 73 | 1015.9 |